Fresno, CA

11:13 PM PST on February 07, 2016 (GMT -0800)
Fresno Yosemite International

Weather History for KFAT - May, 2014

Change the Weather History Date:

Wednesday, May 21, 2014

  Actual Average Record
Temperature  
Mean Temperature 70 °F 71 °F  
Max Temperature 78 °F 86 °F 104 °F (1892)
Min Temperature 61 °F 57 °F 42 °F (1975)
Degree Days  
Heating Degree Days 0    
Month to date heating degree days 3  
Since 1 July heating degree days 1504  
Cooling Degree Days 5    
Month to date cooling degree days 167  
Year to date cooling degree days 311  
Growing Degree Days 20 (Base 50)    
Moisture  
Dew Point 47 °F    
Average Humidity 48    
Maximum Humidity 64    
Minimum Humidity 32    
Precipitation  
Precipitation 0.00 in 0.01 in 0.28 in (2006)
Month to date precipitation 0.01 0.32  
Year to date precipitation 4.05 7.52  
Since 1 July precipitation 4.78  
Snow  
Snow 0.00 in - - ()
Month to date snowfall 0.0  
Since 1 July snowfall 0.0  
Snow Depth 0.00 in    
Sea Level Pressure  
Sea Level Pressure 29.92 in    
Wind  
Wind Speed 5 mph (North)    
Max Wind Speed 13 mph    
Max Gust Speed 17 mph    
Visibility 10 miles    
Events      
T = Trace of Precipitation, MM = Missing Value Source: NWS Daily Summary

Daily Weather History Graph

Daily Weather History Graph

Search for Another Location

Airport or City:

Trip Planner

Search our weather history database for the weather conditions in past years. The results will help you decide how hot, cold, wet, or windy it might be!

Date:

Astronomy

May. 21, 2014 Rise Set
Actual Time 5:46 AM PDT 8:04 PM PDT
Civil Twilight 5:17 AM PDT 8:33 PM PDT
Nautical Twilight 4:41 AM PDT 9:10 PM PDT
Astronomical Twilight 4:02 AM PDT 9:49 PM PDT
Moon 1:21 AM PDT (5/21) 1:02 PM PDT (5/21)
Length of Visible Light 15h 16m
Length of Day
14h 17m
Waning Gibbous, 47% of the Moon is Illuminated
May 21
Waning Gibbous
May 28
New
Jun 5
First Quarter
Jun 12
Full
Jun 19
Last Quarter

Hourly Weather History & Observations

Time (PDT) Temp. Dew Point Humidity Pressure Visibility Wind Dir Wind Speed Gust Speed Precip Events Conditions
12:53 AM 64.9 °F 48.0 °F 54% 29.94 in 10.0 mi NW 8.1 mph - N/A   Overcast
1:53 AM 64.0 °F 48.9 °F 58% 29.94 in 10.0 mi NW 6.9 mph - N/A   Overcast
2:53 AM 63.0 °F 48.9 °F 60% 29.93 in 10.0 mi NW 9.2 mph - N/A   Overcast
3:53 AM 63.0 °F 48.0 °F 58% 29.92 in 10.0 mi NW 5.8 mph - N/A   Overcast
4:53 AM 62.1 °F 46.9 °F 58% 29.91 in 10.0 mi NW 5.8 mph - N/A   Overcast
5:53 AM 61.0 °F 48.9 °F 64% 29.93 in 10.0 mi NNW 5.8 mph - N/A   Overcast
6:53 AM 61.0 °F 48.0 °F 62% 29.94 in 10.0 mi NW 8.1 mph - N/A   Overcast
7:53 AM 62.1 °F 48.0 °F 60% 29.95 in 10.0 mi NW 6.9 mph - N/A   Mostly Cloudy
8:53 AM 66.0 °F 48.9 °F 54% 29.95 in 10.0 mi Variable 4.6 mph - N/A   Scattered Clouds
9:53 AM 68.0 °F 48.9 °F 50% 29.95 in 10.0 mi WSW 4.6 mph - N/A   Scattered Clouds
10:53 AM 71.6 °F 48.2 °F 43% 29.95 in 10.0 mi South 8.1 mph - N/A   Scattered Clouds
11:53 AM 72.0 °F 46.0 °F 40% 29.94 in 10.0 mi ESE 6.9 mph - N/A   Mostly Cloudy
12:53 PM 73.0 °F 46.0 °F 38% 29.93 in 10.0 mi Calm Calm - N/A   Mostly Cloudy
1:53 PM 73.9 °F 46.0 °F 37% 29.92 in 10.0 mi Calm Calm - N/A   Mostly Cloudy
2:53 PM 75.9 °F 46.9 °F 36% 29.91 in 10.0 mi Variable 6.9 mph - N/A   Mostly Cloudy
3:53 PM 77.0 °F 46.9 °F 34% 29.91 in 10.0 mi ENE 6.9 mph 16.1 mph N/A   Mostly Cloudy
4:53 PM 77.0 °F 46.9 °F 34% 29.90 in 10.0 mi East 5.8 mph - N/A   Mostly Cloudy
5:53 PM 78.1 °F 46.9 °F 33% 29.89 in 10.0 mi East 6.9 mph - N/A   Mostly Cloudy
6:53 PM 77.0 °F 46.0 °F 33% 29.88 in 10.0 mi North 3.5 mph - N/A   Mostly Cloudy
7:53 PM 75.9 °F 46.0 °F 35% 29.89 in 10.0 mi NNE 3.5 mph - N/A   Scattered Clouds
8:53 PM 73.9 °F 46.9 °F 38% 29.90 in 10.0 mi South 4.6 mph - N/A   Partly Cloudy
9:53 PM 71.6 °F 46.4 °F 41% 29.91 in 10.0 mi ESE 4.6 mph - N/A   Clear
10:53 PM 72.0 °F 46.9 °F 41% 29.90 in 10.0 mi Calm Calm - N/A   Clear
11:53 PM 70.0 °F 46.9 °F 44% 29.90 in 10.0 mi East 6.9 mph - N/A   Clear